Погода Старая Русса

Погода Старая Русса : погода сейчас, прогноз погоды и архив. Всё, что Вы хотите узнать о погоде Старая Русса!

Хотите узнать прогноз погоды Старая Русса? Тогда Вам сюда: Погода Старая Русса

Поиск расширенной информации на нашем сайте:

Полезная информация:

Другие новости

Новости СМИ2

Главная страница сайта

Новости сайта

03.07.2017

Напоминаем, что на нашем специализированном сайте Метеоцентр.Азия вы можете получить высокодетализированные автоматические прогнозы погоды по пунктам России, СНГ и мира в авиационном формате (включающие направление и скорость ветра, видимость, явления погоды, количество и форму облачности, нижнюю и верхнюю границу облачности).

Рекомендуем:

Погода Старая Русса - сегодня

Время (UTC), дата Ветер
(°,м/с) 
Видим.   Явления Облачность Т
(°С)
Тd
(°С)
f(%) Тe
(°С)
Pmin
(гПа)
dP
(гПа)
Po
(мм)
O2
(г/м3)
Тmin Tmax R s Состояние
почвы
09 15.09.19 170 (Ю) 10 км  слаб. ливневой дождь  10/8 600 м кучево-дожд., средняя 
[Cb cap|As op]
+9.2 +7.6 90 +9  1010.2  -3.7  755  293           
12 15.09.19 180 (Ю) 10 км  слаб. ливневой дождь  10/8 300 м кучево-дожд., средняя 
[Cb cap|As op]
+9.7 +8.5 92 +9  1004.7  -5.5  751  291           
15 15.09.19 210 (ЮЗ) 5-10{11}  10 км  слаб. дождь{ливн. осадки}  10/10 300 м 
[Frnb|Ns]
+9.7 +8.1 90 +8  999  -5.6  747  289         
18 15.09.19 220 (ЮЗ) 4{11}  20000 м  в посл. час дождь{ливн. осадки}  10/8 420 м средняя 
[Frnb|As op]
+10.5 +8.7 89 +10  995.7  -3.3  745  287    +10.5  11     
21 15.09.19 230 (ЮЗ) 20000 м    3/0 средняя 
[Ac trans]
+9.9 +8.3 90 +9  994.8  -0.9  744  288           
00 16.09.19 220 (ЮЗ) 20000 м    10/10 500 м 
[Sc]
+10.1 +8.4 89 +10  994.4  -0.4  744  287           
03 16.09.19 230 (ЮЗ) 20000 м    9/0 средняя 
[Ac trans]
+9.4 +7.8 90 +9  993.2  -1.2  743  288  +8.8       
06 16.09.19 250 (З) 10 км  слаб. ливневой дождь  10/10 480 м кучево-дожд. 
[Cb cap]
+9.8 +8.2 90 +9  993.1  -0.1  743  287  +8.8       
09 16.09.19 240 (ЮЗ) 20000 м  {ливн. осадки}  9/6 600 м кучево-дожд., средняя 
[Cb cap|Ac trans]
+13.1 +8.7 75 +12  992.3  -0.8  742  284           
12 16.09.19 250 (З) 10 км  гроза, ливневой дождь  9/8 600 м кучево-дожд., средняя 
[Cb cap|Ac trans]
+11.8 +10 89 +12  992.1  -0.2  742  285           
15 16.09.19 250 (З) 20000 м  {гроза, ливн. осадки}  8/4 600 м кучево-дожд., средняя 
[Cb cap|Ac trans]
+12 +8.8 81 +12  993.1  743  285         
18 16.09.19 250 (З) 20000 м  {гроза, ливн. осадки}  8/3 600 м кучево-дожд., средняя 
[Cb cap|Ac trans]
+9.6 +7.5 87 +9  994.1  743  288    +14.2     
21 16.09.19 250 (З) 10 км  слаб. ливневой дождь  10/8 600 м кучево-дожд., средняя 
[Cb cap|Ac und]
+9.1 +7.9 92 +9  994.4  0.3  744  289           
00 17.09.19 260 (З) 20000 м  {ливн. осадки}  9/8 450 м кучево-дожд., средняя 
[Cb cap|Ac trans]
+8.9 +7.7 92 +8  994.3  -0.1  744  289           
03 17.09.19 290 (З) 20000 м  {ливн. осадки}  9/9 330 м кучево-дожд. 
[Cb cap]
+8.7 +7.7 93 +9  994.7  0.4  744  289  +8.6       
06 17.09.19 270 (З) 20000 м  {ливн. осадки}  10/3 300 м кучево-дожд., средняя 
[Cb cap|Ac As]
+9.4 +8.1 92 +9  995.3  0.6  744  289  +8.5       
09 17.09.19 300 (СЗ) 20000 м    9/4 300 м кучево-дожд., средняя, верхняя 
[Cb cap|Ac trans|Ci sp]
+11.6 +6.2 69 +11  996  0.7  745  287           
12 17.09.19 260 (З) 20000 м  в посл. час ливневой дождь  10/3 300 м кучево-дожд., средняя 
[Cb cap|Ac As]
+9.9 +6.9 82 +10  996.7  0.7  745  289           
15 17.09.19 270 (З) 20000 м    9/1 300 м кучево-дожд., средняя, верхняя 
[Cb cap|Ac trans|Ci fib]
+11 +5.7 70 +11  996.8  0.1  745  288      0.7     
18 17.09.19 240 (ЮЗ) 20000 м    8/0 средняя 
[Ac trans]
+7.6 +5.7 88 +9  997.3  0.4  746  291    +12.7  0.7     
21 17.09.19 200 (Ю) 20000 м    4/0 средняя 
[Ac trans]
+4.6 +3.7 94 +5  997.1  -0.2  746  295           
00 18.09.19 230 (ЮЗ) 4000 м  дымка  ясно 
+1.2 +0.6 96 +2  997.1  746  299           
03 18.09.19 210 (ЮЗ) 4000 м  дымка  8/0 средняя 
[Ac trans]
+2.1 +1.7 97 +3  997.3  0.2  746  298  +0.8         
06 18.09.19 320 (СЗ) 20000 м    8/0 средняя 
[Ac trans]
+6.5 +5.9 96 +7  997.9  0.6  746  293  +0.8         
09 18.09.19 360 (С) 20000 м    8/5 600 м кучево-дожд., средняя 
[Cb cap|Ac trans]
+11 +6.5 74 +11  999.2  1.4  747  288           
Время (UTC), дата Ветер
(°,м/с) 
Видим.   Явления Облачность Т
(°С)
Тd
(°С)
f(%) Тe
(°С)
Pmin
(гПа)
dP
(гПа)
Po
(мм)
O2
(г/м3)
Тmin Tmax R s Состояние
почвы

Для получения пояснительной информации подведите курсор к названию столбца.

ПОГОДА Старая Русса - архив

Всё, что Вы хотите узнать о погоде Старая Русса - удобно и подробно!

Выберите нужную дату (начиная с 1 января 2018* года) и нажмите кнопку "Найти".
Будут отображены архивные сводки погоды по пункту Старая Русса, начиная с указанной даты.


Отображать данные в формате CSV (для использования в таблицах Excel)


Внимание! Наш архив погоды предназначен исключительно для личного некоммерческого использования в познавательных целях. Если Вам необходимы официальные справки о состоянии погоды (для производственных, юридических, коммерческих и т.п. целей), обращайтесь в органы Росгидромета.

*Примечание: данная дата относится к архиву по метеостанциям СССР (Россия, СНГ, Балтия).
Архив по метеостанциям Зарубежной Европы и Азии (кроме Китая) хранится 10 дней, по другим регионам земного шара (Китай, Африка, Америка, Австралия, Океания) - 1 день.

Старая Русса - район местоположения метеостанции


Название, широта, долгота, высота метеостанции:
Старая Русса 58°ш. 31.3°д. 25 м над ур. моря [Российская Федерация]

Дополнительная информация

В oтличие oт бoльшинства пoгoдных сайтoв мы публикуем пoдрoбную метеoинфoрмацию в детальнoм прoфессиoнальнoм фoрмате.

Характеристики температуры и влажнoсти вoздуха измеряются на высoте 2 м в тени вдали oт зданий и деревьев.
Скoрoсть ветра измеряется на высoте 10 м (на урoвне рoста челoвека скoрoсть ветра ниже в 1.5-2 раза). Если метеoстанция нахoдится в гoрoде или в лесу, тo скoрoсть ветра занижена на 2-4 м/с пo сравнению с oткрытым местoм. Скoрoсть ветра над акватoриями крупных рек и oзёр, а также на вершинах хoлмoв на 2-5 м/с выше, чем в oбычных услoвиях.
Атмoсфернoе давление в разных тoчках местнoсти мoжет значительнo oтличаться oт давления на метеoстанции, в зависимoсти oт услoвий рельефа (при пoдъёме на 10 м давление пoнижается примернo на 1 мм рт.ст.).